Weather in Vazhkurya

Russia / Komi Republic     61°51′33″N   51°54′52″E
temp.,
°C
wind,
m/s
gust,
m/s
humid.,
%
clouds,
%
prec.,
mm/h
press.,
hPa
HPBL,
m
7 may, fri
fri700:00+4se2469100 0.0 101093
03:00+4ese3885100 1.1 1009212
06:00+6se2790100 0.3 1008231
09:00+14ssw476847 0.3 1007734
12:00+17sw595697 0.7 10081772
15:00+15sw3868100 1.7 1008618
18:00+13sse2679100 1.3 1008180
21:00+11s41282100 1.7 1008566
8 may, sat
sat800:00+11s41282100 0.0 1008648
03:00+6w4992100 1.8 1012733
06:00+7sw49859 0.1 1014666
09:00+11wsw576115 0.1 10161316
12:00+14w34429 0.0 10171524
15:00+15sw22376 0.0 10171813
18:00+14se12495 0.0 101639
21:00+8ese256580 0.0 101769
9 may, sun
sun900:00+7se397199 0.0 1016178
03:00+7se31175100 0.0 1016258
06:00+10se41279100 0.0 1015389
09:00+16sse61259100 0.0 10141359
12:00+18s51151100 0.0 10132170
15:00+20s51243100 0.0 10122522
18:00+18ssw3853100 0.0 1013361
21:00+13se2588100 0.8 1015119
10 may, mon
mon1000:00+13sse41282100 0.2 1014404
03:00+14s61477100 0.3 1015956
06:00+13ssw51187100 0.6 10161063
09:00+7nw3792100 3.6 1021537
12:00+7nw3688100 2.0 1024742
15:00+10nnw355996 2.1 10251090
18:00+11n13554 0.0 1026186
21:00+6sse11720 0.0 102710
11 may, tue
tue1100:00+4ssw22785 0.0 102814
03:00+4ssw2278100 0.0 102931
06:00+8ssw256693 0.0 1029194
09:00+12sw4751100 0.0 1028733
12:00+13sw5855100 0.0 1027940
15:00+17wsw51059100 0.0 10251388
18:00+13sw41385100 0.6 1025628
21:00+11sw31093100 0.6 1025213